,,,PA_Meas_PMT16A,,PR_Meas_QMR101_102,,RH_Meas_QMH101,,SR_Meas_QMS101,,TA_Meas_QMH101,,GenWind,,GenWind,
date,time,status,PA,status,PR,status,RH,status,SR,status,TA,status,DirAvg,status,SpdAvg,
2011-05-21, 00:00:04,VALID,1009.929,VALID,0.0,VALID,104.0,VALID,0.0,VALID,24.688,VALID,166.0,VALID,0.95,
2011-05-21, 00:01:04,VALID,1009.906,VALID,0.0,VALID,104.0,VALID,0.0,VALID,24.649,VALID,172.0,VALID,1.064,
2011-05-21, 00:02:04,VALID,1009.875,VALID,0.0,VALID,104.0,VALID,0.0,VALID,24.608,VALID,176.0,VALID,1.102,
2011-05-21, 00:03:04,VALID,1009.865,VALID,0.0,VALID,104.0,VALID,0.0,VALID,24.629,VALID,167.0,VALID,0.574,
2011-05-21, 00:04:04,VALID,1009.839,VALID,0.0,VALID,104.0,VALID,0.0,VALID,24.608,VALID,167.0,VALID,0.469,
2011-05-21, 00:05:04,VALID,1009.85,VALID,0.0,VALID,104.0,VALID,0.0,VALID,24.608,VALID,167.0,VALID,0.456,
2011-05-21, 00:06:04,VALID,1009.848,VALID,0.0,VALID,104.0,VALID,0.0,VALID,24.569,VALID,151.0,VALID,0.899,
2011-05-21, 00:07:04,VALID,1009.817,VALID,0.0,VALID,104.0,VALID,0.0,VALID,24.589,VALID,151.0,VALID,0.997,
2011-05-21, 00:08:04,VALID,1009.83,VALID,0.0,VALID,104.0,VALID,0.0,VALID,24.569,VALID,140.0,VALID,1.487,
2011-05-21, 00:09:04,VALID,1009.803,VALID,0.0,VALID,104.0,VALID,0.0,VALID,24.548,VALID,131.0,VALID,1.331,
2011-05-21, 00:10:04,VALID,1009.806,VALID,0.0,VALID,104.0,VALID,0.106,VALID,24.589,VALID,107.0,VALID,0.964,
2011-05-21, 00:11:04,VALID,1009.825,VALID,0.0,VALID,104.0,VALID,0.0,VALID,24.589,VALID,112.0,VALID,1.313,
2011-05-21, 00:12:04,VALID,1009.777,VALID,0.0,VALID,104.0,VALID,0.0,VALID,24.61,VALID,93.0,VALID,1.503,
2011-05-21, 00:13:04,VALID,1009.757,VALID,0.0,VALID,104.0,VALID,0.106,VALID,24.589,VALID,112.0,VALID,1.258,
2011-05-21, 00:14:04,VALID,1009.774,VALID,0.0,VALID,104.0,VALID,0.0,VALID,24.55,VALID,104.0,VALID,1.388,
2011-05-21, 00:15:04,VALID,1009.724,VALID,0.0,VALID,104.0,VALID,0.0,VALID,24.569,VALID,128.0,VALID,0.694,
2011-05-21, 00:16:04,VALID,1009.717,VALID,0.0,VALID,104.0,VALID,0.0,VALID,24.571,VALID,139.0,VALID,1.293,
2011-05-21, 00:17:04,VALID,1009.677,VALID,0.0,VALID,104.0,VALID,0.0,VALID,24.53,VALID,137.0,VALID,0.921,
2011-05-21, 00:18:04,VALID,1009.683,VALID,0.0,VALID,104.0,VALID,0.0,VALID,24.511,VALID,153.0,VALID,1.24,
2011-05-21, 00:19:04,VALID,1009.653,VALID,0.0,VALID,104.0,VALID,0.0,VALID,24.512,VALID,134.0,VALID,0.768,
2011-05-21, 00:20:04,VALID,1009.625,VALID,0.0,VALID,104.0,VALID,0.0,VALID,24.493,VALID,141.0,VALID,0.604,
2011-05-21, 00:21:04,VALID,1009.604,VALID,0.0,VALID,104.0,VALID,0.0,VALID,24.493,VALID,141.0,VALID,0.184,
2011-05-21, 00:22:04,VALID,1009.602,VALID,0.0,VALID,104.0,VALID,0.0,VALID,24.493,VALID,61.0,VALID,0.422,
2011-05-21, 00:23:04,VALID,1009.568,VALID,0.0,VALID,104.0,VALID,0.0,VALID,24.452,VALID,73.0,VALID,0.946,
2011-05-21, 00:24:04,VALID,1009.568,VALID,0.0,VALID,104.0,VALID,0.0,VALID,24.452,VALID,73.0,VALID,0.532,
2011-05-21, 00:25:04,VALID,1009.581,VALID,0.0,VALID,104.0,VALID,0.0,VALID,24.474,VALID,73.0,VALID,0.28,
2011-05-21, 00:26:04,VALID,1009.568,VALID,0.0,VALID,104.0,VALID,0.0,VALID,24.452,VALID,73.0,VALID,0.629,
2011-05-21, 00:27:04,VALID,1009.553,VALID,0.0,VALID,104.0,VALID,0.0,VALID,24.433,VALID,61.0,VALID,0.738,
2011-05-21, 00:28:04,VALID,1009.532,VALID,0.0,VALID,104.0,VALID,0.0,VALID,24.433,VALID,61.0,VALID,0.375,
2011-05-21, 00:29:04,VALID,1009.512,VALID,0.0,VALID,104.0,VALID,0.0,VALID,24.454,VALID,61.0,VALID,0.0,
2011-05-21, 00:30:04,VALID,1009.482,VALID,0.0,VALID,104.0,VALID,0.0,VALID,24.435,VALID,61.0,VALID,0.0,
2011-05-21, 00:31:04,VALID,1009.454,VALID,0.0,VALID,104.0,VALID,0.0,VALID,24.435,VALID,61.0,VALID,0.0,
2011-05-21, 00:32:04,VALID,1009.446,VALID,0.0,VALID,104.0,VALID,0.0,VALID,24.413,VALID,61.0,VALID,0.0,
2011-05-21, 00:33:04,VALID,1009.437,VALID,0.0,VALID,104.0,VALID,0.106,VALID,24.433,VALID,61.0,VALID,0.0,
2011-05-21, 00:34:04,VALID,1009.415,VALID,0.0,VALID,104.0,VALID,0.0,VALID,24.413,VALID,61.0,VALID,0.0,
2011-05-21, 00:35:04,VALID,1009.414,VALID,0.0,VALID,104.0,VALID,0.0,VALID,24.413,VALID,61.0,VALID,0.0,
2011-05-21, 00:36:04,VALID,1009.439,VALID,0.0,VALID,104.0,VALID,0.0,VALID,24.415,VALID,61.0,VALID,0.0,
2011-05-21, 00:37:04,VALID,1009.416,VALID,0.0,VALID,104.0,VALID,0.106,VALID,24.413,VALID,61.0,VALID,0.257,
2011-05-21, 00:38:04,VALID,1009.422,VALID,0.0,VALID,104.0,VALID,0.0,VALID,24.394,VALID,61.0,VALID,0.152,
2011-05-21, 00:39:04,VALID,1009.416,VALID,0.0,VALID,104.0,VALID,0.0,VALID,24.374,VALID,61.0,VALID,0.534,
2011-05-21, 00:40:04,VALID,1009.417,VALID,0.0,VALID,104.0,VALID,0.0,VALID,24.374,VALID,61.0,VALID,0.639,
2011-05-21, 00:41:04,VALID,1009.409,VALID,0.0,VALID,104.0,VALID,0.0,VALID,24.374,VALID,61.0,VALID,0.848,
2011-05-21, 00:42:04,VALID,1009.394,VALID,0.0,VALID,104.0,VALID,0.0,VALID,24.376,VALID,61.0,VALID,0.735,
2011-05-21, 00:43:04,VALID,1009.398,VALID,0.0,VALID,104.0,VALID,0.0,VALID,24.357,VALID,61.0,VALID,0.554,
2011-05-21, 00:44:04,VALID,1009.371,VALID,0.0,VALID,104.0,VALID,0.106,VALID,24.316,VALID,61.0,VALID,0.257,
2011-05-21, 00:45:04,VALID,1009.378,VALID,0.0,VALID,104.0,VALID,0.0,VALID,24.337,VALID,61.0,VALID,0.071,
2011-05-21, 00:46:04,VALID,1009.343,VALID,0.0,VALID,104.0,VALID,0.0,VALID,24.337,VALID,61.0,VALID,0.0,
2011-05-21, 00:47:04,VALID,1009.302,VALID,0.0,VALID,104.0,VALID,0.0,VALID,24.296,VALID,61.0,VALID,0.002,
2011-05-21, 00:48:04,VALID,1009.305,VALID,0.0,VALID,104.0,VALID,0.0,VALID,24.296,VALID,61.0,VALID,0.0,
2011-05-21, 00:49:04,VALID,1009.309,VALID,0.0,VALID,104.0,VALID,0.0,VALID,24.296,VALID,61.0,VALID,0.0,
2011-05-21, 00:50:04,VALID,1009.27,VALID,0.0,VALID,104.0,VALID,0.0,VALID,24.296,VALID,61.0,VALID,0.0,
2011-05-21, 00:51:04,VALID,1009.301,VALID,0.0,VALID,104.0,VALID,0.0,VALID,24.277,VALID,61.0,VALID,0.383,
2011-05-21, 00:52:04,VALID,1009.291,VALID,0.0,VALID,104.0,VALID,0.0,VALID,24.277,VALID,93.0,VALID,0.793,
2011-05-21, 00:53:04,VALID,1009.265,VALID,0.0,VALID,104.0,VALID,0.0,VALID,24.257,VALID,81.0,VALID,0.438,
2011-05-21, 00:54:04,VALID,1009.262,VALID,0.0,VALID,104.0,VALID,0.0,VALID,24.277,VALID,81.0,VALID,0.189,
2011-05-21, 00:55:04,VALID,1009.231,VALID,0.0,VALID,104.0,VALID,0.106,VALID,24.277,VALID,81.0,VALID,0.0,
2011-05-21, 00:56:04,VALID,1009.205,VALID,0.0,VALID,104.0,VALID,0.106,VALID,24.257,VALID,49.0,VALID,0.224,
2011-05-21, 00:57:04,VALID,1009.177,VALID,0.0,VALID,104.0,VALID,0.106,VALID,24.277,VALID,48.0,VALID,0.077,
2011-05-21, 00:58:04,VALID,1009.164,VALID,0.0,VALID,104.0,VALID,0.0,VALID,24.277,VALID,48.0,VALID,0.0,
2011-05-21, 00:59:04,VALID,1009.153,VALID,0.0,VALID,104.0,VALID,0.0,VALID,24.279,VALID,48.0,VALID,0.0,
2011-05-21, 01:00:04,VALID,1009.156,VALID,0.0,VALID,104.0,VALID,0.0,VALID,24.257,VALID,48.0,VALID,0.0,
2011-05-21, 01:01:04,VALID,1009.135,VALID,0.0,VALID,104.0,VALID,0.0,VALID,24.277,VALID,48.0,VALID,0.0,
2011-05-21, 01:02:04,VALID,1009.17,VALID,0.0,VALID,104.0,VALID,0.0,VALID,24.277,VALID,48.0,VALID,0.0,
2011-05-21, 01:03:04,VALID,1009.166,VALID,0.0,VALID,104.0,VALID,0.0,VALID,24.257,VALID,48.0,VALID,0.206,
2011-05-21, 01:04:04,VALID,1009.154,VALID,0.0,VALID,104.0,VALID,0.0,VALID,24.257,VALID,48.0,VALID,0.009,
2011-05-21, 01:05:04,VALID,1009.145,VALID,0.0,VALID,104.0,VALID,0.0,VALID,24.238,VALID,48.0,VALID,0.084,
2011-05-21, 01:06:04,VALID,1009.113,VALID,0.0,VALID,104.0,VALID,0.0,VALID,24.238,VALID,48.0,VALID,0.0,
2011-05-21, 01:07:04,VALID,1009.088,VALID,0.0,VALID,104.0,VALID,0.0,VALID,24.238,VALID,48.0,VALID,0.0,
2011-05-21, 01:08:04,VALID,1009.06,VALID,0.0,VALID,104.0,VALID,0.0,VALID,24.238,VALID,48.0,VALID,0.0,
2011-05-21, 01:09:04,VALID,1009.034,VALID,0.0,VALID,104.0,VALID,0.0,VALID,24.24,VALID,48.0,VALID,0.0,
2011-05-21, 01:10:04,VALID,1009.005,VALID,0.0,VALID,104.0,VALID,0.0,VALID,24.259,VALID,48.0,VALID,0.0,
2011-05-21, 01:11:04,VALID,1008.98,VALID,0.0,VALID,104.0,VALID,0.106,VALID,24.238,VALID,48.0,VALID,0.0,
2011-05-21, 01:12:04,VALID,1008.965,VALID,0.0,VALID,104.0,VALID,0.0,VALID,24.199,VALID,48.0,VALID,0.002,
2011-05-21, 01:13:04,VALID,1008.963,VALID,0.0,VALID,104.0,VALID,0.106,VALID,24.199,VALID,48.0,VALID,0.0,
2011-05-21, 01:14:04,VALID,1008.951,VALID,0.0,VALID,104.0,VALID,0.106,VALID,24.179,VALID,48.0,VALID,0.0,
2011-05-21, 01:15:04,VALID,1008.966,VALID,0.0,VALID,104.0,VALID,0.106,VALID,24.179,VALID,48.0,VALID,0.0,
2011-05-21, 01:16:04,VALID,1008.973,VALID,0.0,VALID,104.0,VALID,0.106,VALID,24.201,VALID,48.0,VALID,0.342,
2011-05-21, 01:17:04,VALID,1008.978,VALID,0.0,VALID,104.0,VALID,0.0,VALID,24.199,VALID,21.0,VALID,0.352,
2011-05-21, 01:18:04,VALID,1008.964,VALID,0.0,VALID,104.0,VALID,0.106,VALID,24.199,VALID,21.0,VALID,0.091,
2011-05-21, 01:19:04,VALID,1008.958,VALID,0.0,VALID,104.0,VALID,0.0,VALID,24.199,VALID,21.0,VALID,0.0,
2011-05-21, 01:20:04,VALID,1008.932,VALID,0.0,VALID,104.0,VALID,0.0,VALID,24.22,VALID,21.0,VALID,0.0,
2011-05-21, 01:21:04,VALID,1008.901,VALID,0.0,VALID,104.0,VALID,0.106,VALID,24.179,VALID,21.0,VALID,0.0,
2011-05-21, 01:22:04,VALID,1008.9,VALID,0.0,VALID,104.0,VALID,0.106,VALID,24.199,VALID,21.0,VALID,0.24,
2011-05-21, 01:23:04,VALID,1008.855,VALID,0.0,VALID,104.0,VALID,0.0,VALID,24.179,VALID,25.0,VALID,0.466,
2011-05-21, 01:24:04,VALID,1008.834,VALID,0.0,VALID,104.0,VALID,0.0,VALID,24.179,VALID,25.0,VALID,0.314,
2011-05-21, 01:25:04,VALID,1008.82,VALID,0.0,VALID,104.0,VALID,0.106,VALID,24.22,VALID,25.0,VALID,0.002,
2011-05-21, 01:26:04,VALID,1008.838,VALID,0.0,VALID,104.0,VALID,0.106,VALID,24.179,VALID,25.0,VALID,0.15,
2011-05-21, 01:27:04,VALID,1008.829,VALID,0.0,VALID,104.0,VALID,0.106,VALID,24.16,VALID,25.0,VALID,0.348,
2011-05-21, 01:28:04,VALID,1008.833,VALID,0.0,VALID,104.0,VALID,0.106,VALID,24.181,VALID,25.0,VALID,0.0,
2011-05-21, 01:29:04,VALID,1008.836,VALID,0.0,VALID,104.0,VALID,0.106,VALID,24.201,VALID,25.0,VALID,0.0,
2011-05-21, 01:30:04,VALID,1008.807,VALID,0.0,VALID,104.0,VALID,0.106,VALID,24.179,VALID,25.0,VALID,0.202,
2011-05-21, 01:31:04,VALID,1008.848,VALID,0.0,VALID,104.0,VALID,0.0,VALID,24.179,VALID,25.0,VALID,0.323,
2011-05-21, 01:32:04,VALID,1008.836,VALID,0.0,VALID,104.0,VALID,0.106,VALID,24.179,VALID,25.0,VALID,0.493,
2011-05-21, 01:33:04,VALID,1008.829,VALID,0.0,VALID,104.0,VALID,0.0,VALID,24.201,VALID,127.0,VALID,0.486,
2011-05-21, 01:34:04,VALID,1008.862,VALID,0.0,VALID,104.0,VALID,0.0,VALID,24.179,VALID,154.0,VALID,0.376,
2011-05-21, 01:35:04,VALID,1008.871,VALID,0.0,VALID,104.0,VALID,0.0,VALID,24.201,VALID,154.0,VALID,0.0,
2011-05-21, 01:36:04,VALID,1008.835,VALID,0.0,VALID,104.0,VALID,0.0,VALID,24.181,VALID,154.0,VALID,0.0,
2011-05-21, 01:37:04,VALID,1008.864,VALID,0.0,VALID,104.0,VALID,0.106,VALID,24.179,VALID,154.0,VALID,0.0,
2011-05-21, 01:38:04,VALID,1008.867,VALID,0.0,VALID,104.0,VALID,0.0,VALID,24.22,VALID,154.0,VALID,0.53,
2011-05-21, 01:39:04,VALID,1008.88,VALID,0.0,VALID,104.0,VALID,0.0,VALID,24.199,VALID,131.0,VALID,0.85,
2011-05-21, 01:40:04,VALID,1008.889,VALID,0.0,VALID,104.0,VALID,0.106,VALID,24.199,VALID,136.0,VALID,0.895,
2011-05-21, 01:41:04,VALID,1008.863,VALID,0.0,VALID,104.0,VALID,0.106,VALID,24.218,VALID,136.0,VALID,0.392,
2011-05-21, 01:42:04,VALID,1008.865,VALID,0.0,VALID,104.0,VALID,0.0,VALID,24.22,VALID,136.0,VALID,0.0,
2011-05-21, 01:43:04,VALID,1008.851,VALID,0.0,VALID,104.0,VALID,0.106,VALID,24.22,VALID,136.0,VALID,0.0,
2011-05-21, 01:44:04,VALID,1008.886,VALID,0.0,VALID,104.0,VALID,0.0,VALID,24.199,VALID,128.0,VALID,0.373,
2011-05-21, 01:45:04,VALID,1008.891,VALID,0.0,VALID,104.0,VALID,0.106,VALID,24.218,VALID,128.0,VALID,0.016,
2011-05-21, 01:46:04,VALID,1008.891,VALID,0.0,VALID,104.0,VALID,0.0,VALID,24.218,VALID,128.0,VALID,0.357,
2011-05-21, 01:47:04,VALID,1008.913,VALID,0.0,VALID,104.0,VALID,0.0,VALID,24.24,VALID,128.0,VALID,0.22,
2011-05-21, 01:48:04,VALID,1008.938,VALID,0.0,VALID,104.0,VALID,0.0,VALID,24.218,VALID,151.0,VALID,0.592,
2011-05-21, 01:49:04,VALID,1008.971,VALID,0.0,VALID,104.0,VALID,0.106,VALID,24.199,VALID,152.0,VALID,0.645,
2011-05-21, 01:50:04,VALID,1008.977,VALID,0.0,VALID,104.0,VALID,0.0,VALID,24.179,VALID,155.0,VALID,0.606,
2011-05-21, 01:51:04,VALID,1008.986,VALID,0.0,VALID,104.0,VALID,0.106,VALID,24.199,VALID,154.0,VALID,0.413,
2011-05-21, 01:52:04,VALID,1009.012,VALID,0.0,VALID,104.0,VALID,0.0,VALID,24.201,VALID,154.0,VALID,0.166,
2011-05-21, 01:53:04,VALID,1009.038,VALID,0.0,VALID,104.0,VALID,0.0,VALID,24.179,VALID,112.0,VALID,0.771,
2011-05-21, 01:54:04,VALID,1009.026,VALID,0.0,VALID,104.0,VALID,0.0,VALID,24.179,VALID,117.0,VALID,0.524,
2011-05-21, 01:55:04,VALID,1009.056,VALID,0.0,VALID,104.0,VALID,0.106,VALID,24.181,VALID,117.0,VALID,0.836,
2011-05-21, 01:56:04,VALID,1009.042,VALID,0.0,VALID,104.0,VALID,0.106,VALID,24.179,VALID,117.0,VALID,0.601,
2011-05-21, 01:57:04,VALID,1009.057,VALID,0.0,VALID,104.0,VALID,0.106,VALID,24.181,VALID,117.0,VALID,0.189,
2011-05-21, 01:58:04,VALID,1009.047,VALID,0.0,VALID,104.0,VALID,0.0,VALID,24.16,VALID,106.0,VALID,0.486,
2011-05-21, 01:59:04,VALID,1009.037,VALID,0.0,VALID,104.0,VALID,0.0,VALID,24.14,VALID,149.0,VALID,0.659,
2011-05-21, 02:00:04,VALID,1009.031,VALID,0.0,VALID,104.0,VALID,0.0,VALID,24.181,VALID,139.0,VALID,0.574,
2011-05-21, 02:01:04,VALID,1009.005,VALID,0.0,VALID,104.0,VALID,0.0,VALID,24.16,VALID,135.0,VALID,0.309,
2011-05-21, 02:02:04,VALID,1009.011,VALID,0.0,VALID,104.0,VALID,0.106,VALID,24.16,VALID,135.0,VALID,0.356,
2011-05-21, 02:03:04,VALID,1008.966,VALID,0.0,VALID,104.0,VALID,0.0,VALID,24.14,VALID,135.0,VALID,0.187,
2011-05-21, 02:04:04,VALID,1008.99,VALID,0.0,VALID,104.0,VALID,0.0,VALID,24.162,VALID,135.0,VALID,0.098,
2011-05-21, 02:05:04,VALID,1008.953,VALID,0.0,VALID,104.0,VALID,0.0,VALID,24.14,VALID,135.0,VALID,0.077,
2011-05-21, 02:06:04,VALID,1008.936,VALID,0.0,VALID,104.0,VALID,0.0,VALID,24.162,VALID,119.0,VALID,0.331,
2011-05-21, 02:07:04,VALID,1008.934,VALID,0.0,VALID,104.0,VALID,0.0,VALID,24.162,VALID,119.0,VALID,0.417,
2011-05-21, 02:08:04,VALID,1008.924,VALID,0.0,VALID,104.0,VALID,0.0,VALID,24.162,VALID,119.0,VALID,0.309,
2011-05-21, 02:09:04,VALID,1008.924,VALID,0.0,VALID,104.0,VALID,0.106,VALID,24.14,VALID,96.0,VALID,0.499,
2011-05-21, 02:10:04,VALID,1008.894,VALID,0.0,VALID,104.0,VALID,0.106,VALID,24.119,VALID,96.0,VALID,0.0,
2011-05-21, 02:11:04,VALID,1008.917,VALID,0.0,VALID,104.0,VALID,0.106,VALID,24.14,VALID,96.0,VALID,0.002,
2011-05-21, 02:12:04,VALID,1008.903,VALID,0.0,VALID,104.0,VALID,0.106,VALID,24.121,VALID,96.0,VALID,0.048,
2011-05-21, 02:13:04,VALID,1008.903,VALID,0.0,VALID,104.0,VALID,0.106,VALID,24.142,VALID,96.0,VALID,0.225,
2011-05-21, 02:14:04,VALID,1008.883,VALID,0.0,VALID,104.0,VALID,0.106,VALID,24.121,VALID,96.0,VALID,0.347,
2011-05-21, 02:15:04,VALID,1008.88,VALID,0.0,VALID,104.0,VALID,0.106,VALID,24.121,VALID,77.0,VALID,0.832,
2011-05-21, 02:16:04,VALID,1008.879,VALID,0.0,VALID,104.0,VALID,0.106,VALID,24.123,VALID,77.0,VALID,0.491,
2011-05-21, 02:17:04,VALID,1008.836,VALID,0.0,VALID,104.0,VALID,0.106,VALID,24.121,VALID,77.0,VALID,0.64,
2011-05-21, 02:18:04,VALID,1008.843,VALID,0.0,VALID,104.0,VALID,0.0,VALID,24.121,VALID,77.0,VALID,0.164,
2011-05-21, 02:19:04,VALID,1008.853,VALID,0.0,VALID,104.0,VALID,0.0,VALID,24.142,VALID,77.0,VALID,0.354,
2011-05-21, 02:20:04,VALID,1008.829,VALID,0.0,VALID,104.0,VALID,0.0,VALID,24.142,VALID,77.0,VALID,0.356,
2011-05-21, 02:21:04,VALID,1008.82,VALID,0.0,VALID,104.0,VALID,0.106,VALID,24.121,VALID,77.0,VALID,0.0,
2011-05-21, 02:22:04,VALID,1008.818,VALID,0.0,VALID,104.0,VALID,0.106,VALID,24.101,VALID,77.0,VALID,0.0,
2011-05-21, 02:23:04,VALID,1008.763,VALID,0.0,VALID,104.0,VALID,0.0,VALID,24.123,VALID,77.0,VALID,0.0,
2011-05-21, 02:24:04,VALID,1008.769,VALID,0.0,VALID,104.0,VALID,0.0,VALID,24.123,VALID,77.0,VALID,0.0,
2011-05-21, 02:25:04,VALID,1008.74,VALID,0.0,VALID,104.0,VALID,0.106,VALID,24.101,VALID,77.0,VALID,0.0,
2011-05-21, 02:26:04,VALID,1008.733,VALID,0.0,VALID,104.0,VALID,0.0,VALID,24.103,VALID,43.0,VALID,0.62,
2011-05-21, 02:27:04,VALID,1008.758,VALID,0.0,VALID,104.0,VALID,0.0,VALID,24.062,VALID,40.0,VALID,0.198,
2011-05-21, 02:28:04,VALID,1008.74,VALID,0.0,VALID,104.0,VALID,0.0,VALID,24.064,VALID,37.0,VALID,0.067,
2011-05-21, 02:29:04,VALID,1008.756,VALID,0.0,VALID,104.0,VALID,0.0,VALID,24.043,VALID,37.0,VALID,0.0,
2011-05-21, 02:30:04,VALID,1008.772,VALID,0.0,VALID,104.0,VALID,0.0,VALID,24.064,VALID,37.0,VALID,0.0,
2011-05-21, 02:31:04,VALID,1008.759,VALID,0.0,VALID,104.0,VALID,0.0,VALID,24.064,VALID,37.0,VALID,0.0,
2011-05-21, 02:32:04,VALID,1008.771,VALID,0.0,VALID,104.0,VALID,0.0,VALID,24.043,VALID,37.0,VALID,0.0,
2011-05-21, 02:33:04,VALID,1008.759,VALID,0.0,VALID,104.0,VALID,0.0,VALID,24.045,VALID,37.0,VALID,0.0,
2011-05-21, 02:34:04,VALID,1008.746,VALID,0.0,VALID,104.0,VALID,0.0,VALID,24.023,VALID,37.0,VALID,0.0,
2011-05-21, 02:35:04,VALID,1008.721,VALID,0.0,VALID,104.0,VALID,0.0,VALID,24.023,VALID,37.0,VALID,0.0,
2011-05-21, 02:36:04,VALID,1008.692,VALID,0.0,VALID,104.0,VALID,0.0,VALID,24.025,VALID,37.0,VALID,0.0,
2011-05-21, 02:37:04,VALID,1008.716,VALID,0.0,VALID,104.0,VALID,0.0,VALID,24.004,VALID,37.0,VALID,0.062,
2011-05-21, 02:38:04,VALID,1008.684,VALID,0.0,VALID,104.0,VALID,0.0,VALID,24.025,VALID,37.0,VALID,0.253,
2011-05-21, 02:39:04,VALID,1008.713,VALID,0.0,VALID,104.0,VALID,0.0,VALID,24.006,VALID,37.0,VALID,0.202,
2011-05-21, 02:40:04,VALID,1008.692,VALID,0.0,VALID,104.0,VALID,0.0,VALID,24.006,VALID,37.0,VALID,0.0,
2011-05-21, 02:41:04,VALID,1008.702,VALID,0.0,VALID,104.0,VALID,0.0,VALID,23.984,VALID,37.0,VALID,0.0,
2011-05-21, 02:42:04,VALID,1008.717,VALID,0.0,VALID,104.0,VALID,0.0,VALID,23.967,VALID,37.0,VALID,0.254,
2011-05-21, 02:43:04,VALID,1008.709,VALID,0.0,VALID,104.0,VALID,0.0,VALID,23.967,VALID,36.0,VALID,0.11,
2011-05-21, 02:44:04,VALID,1008.728,VALID,0.0,VALID,104.0,VALID,0.0,VALID,23.928,VALID,49.0,VALID,0.696,
2011-05-21, 02:45:04,VALID,1008.71,VALID,0.0,VALID,104.0,VALID,0.0,VALID,23.928,VALID,49.0,VALID,0.631,
2011-05-21, 02:46:04,VALID,1008.738,VALID,0.0,VALID,104.0,VALID,0.0,VALID,23.908,VALID,49.0,VALID,0.405,
2011-05-21, 02:47:04,VALID,1008.723,VALID,0.0,VALID,104.0,VALID,0.0,VALID,23.907,VALID,49.0,VALID,0.0,
2011-05-21, 02:48:04,VALID,1008.72,VALID,0.0,VALID,104.0,VALID,0.0,VALID,23.908,VALID,49.0,VALID,0.0,
2011-05-21, 02:49:04,VALID,1008.722,VALID,0.0,VALID,104.0,VALID,0.0,VALID,23.907,VALID,49.0,VALID,0.0,
2011-05-21, 02:50:04,VALID,1008.732,VALID,0.0,VALID,104.0,VALID,0.0,VALID,23.908,VALID,49.0,VALID,0.0,
2011-05-21, 02:51:04,VALID,1008.724,VALID,0.0,VALID,104.0,VALID,0.0,VALID,23.887,VALID,49.0,VALID,0.0,
2011-05-21, 02:52:04,VALID,1008.748,VALID,0.0,VALID,104.0,VALID,0.0,VALID,23.889,VALID,49.0,VALID,0.005,
2011-05-21, 02:53:04,VALID,1008.751,VALID,0.0,VALID,104.0,VALID,0.0,VALID,23.848,VALID,49.0,VALID,0.397,
2011-05-21, 02:54:04,VALID,1008.76,VALID,0.0,VALID,104.0,VALID,0.0,VALID,23.85,VALID,51.0,VALID,0.482,
2011-05-21, 02:55:04,VALID,1008.772,VALID,0.0,VALID,104.0,VALID,0.0,VALID,23.85,VALID,51.0,VALID,0.181,
2011-05-21, 02:56:04,VALID,1008.77,VALID,0.0,VALID,104.0,VALID,0.0,VALID,23.85,VALID,51.0,VALID,0.137,
2011-05-21, 02:57:04,VALID,1008.73,VALID,0.0,VALID,104.0,VALID,0.0,VALID,23.83,VALID,51.0,VALID,0.007,
2011-05-21, 02:58:04,VALID,1008.726,VALID,0.0,VALID,104.0,VALID,0.0,VALID,23.83,VALID,51.0,VALID,0.0,
2011-05-21, 02:59:04,VALID,1008.715,VALID,0.0,VALID,104.0,VALID,0.0,VALID,23.83,VALID,31.0,VALID,0.006,
2011-05-21, 03:00:04,VALID,1008.698,VALID,0.0,VALID,104.0,VALID,0.0,VALID,23.811,VALID,31.0,VALID,0.316,
2011-05-21, 03:01:04,VALID,1008.708,VALID,0.0,VALID,104.0,VALID,0.0,VALID,23.79,VALID,37.0,VALID,0.414,
2011-05-21, 03:02:04,VALID,1008.707,VALID,0.0,VALID,104.0,VALID,0.0,VALID,23.811,VALID,54.0,VALID,0.411,
2011-05-21, 03:03:04,VALID,1008.756,VALID,0.0,VALID,104.0,VALID,0.0,VALID,23.77,VALID,60.0,VALID,0.59,
2011-05-21, 03:04:04,VALID,1008.758,VALID,0.0,VALID,104.0,VALID,0.0,VALID,23.791,VALID,66.0,VALID,0.519,
2011-05-21, 03:05:04,VALID,1008.76,VALID,0.0,VALID,104.0,VALID,0.106,VALID,23.77,VALID,95.0,VALID,0.503,
2011-05-21, 03:06:04,VALID,1008.779,VALID,0.0,VALID,104.0,VALID,0.0,VALID,23.77,VALID,95.0,VALID,0.16,
2011-05-21, 03:07:04,VALID,1008.789,VALID,0.0,VALID,104.0,VALID,0.0,VALID,23.79,VALID,95.0,VALID,0.179,
2011-05-21, 03:08:04,VALID,1008.785,VALID,0.0,VALID,104.0,VALID,0.0,VALID,23.811,VALID,95.0,VALID,0.42,
2011-05-21, 03:09:04,VALID,1008.777,VALID,0.0,VALID,104.0,VALID,0.0,VALID,23.77,VALID,95.0,VALID,0.464,
2011-05-21, 03:10:04,VALID,1008.777,VALID,0.0,VALID,104.0,VALID,0.0,VALID,23.811,VALID,95.0,VALID,0.572,
2011-05-21, 03:11:04,VALID,1008.779,VALID,0.0,VALID,104.0,VALID,0.0,VALID,23.791,VALID,72.0,VALID,0.236,
2011-05-21, 03:12:04,VALID,1008.761,VALID,0.0,VALID,104.0,VALID,0.0,VALID,23.79,VALID,81.0,VALID,0.354,
2011-05-21, 03:13:04,VALID,1008.745,VALID,0.0,VALID,104.0,VALID,0.0,VALID,23.811,VALID,81.0,VALID,0.515,
2011-05-21, 03:14:04,VALID,1008.74,VALID,0.0,VALID,104.0,VALID,0.0,VALID,23.811,VALID,80.0,VALID,0.65,
2011-05-21, 03:15:04,VALID,1008.73,VALID,0.0,VALID,104.0,VALID,0.0,VALID,23.79,VALID,76.0,VALID,0.346,
2011-05-21, 03:16:04,VALID,1008.724,VALID,0.0,VALID,104.0,VALID,0.0,VALID,23.811,VALID,76.0,VALID,0.481,
2011-05-21, 03:17:04,VALID,1008.737,VALID,0.0,VALID,104.0,VALID,0.0,VALID,23.77,VALID,92.0,VALID,0.891,
2011-05-21, 03:18:04,VALID,1008.719,VALID,0.0,VALID,104.0,VALID,0.0,VALID,23.811,VALID,92.0,VALID,0.725,
2011-05-21, 03:19:04,VALID,1008.738,VALID,0.0,VALID,104.0,VALID,0.0,VALID,23.811,VALID,91.0,VALID,0.932,
2011-05-21, 03:20:04,VALID,1008.709,VALID,0.0,VALID,104.0,VALID,0.0,VALID,23.83,VALID,74.0,VALID,0.901,
2011-05-21, 03:21:04,VALID,1008.734,VALID,0.0,VALID,104.0,VALID,0.0,VALID,23.809,VALID,89.0,VALID,0.503,
2011-05-21, 03:22:04,VALID,1008.744,VALID,0.0,VALID,104.0,VALID,0.106,VALID,23.83,VALID,89.0,VALID,0.287,
2011-05-21, 03:23:04,VALID,1008.75,VALID,0.0,VALID,104.0,VALID,0.0,VALID,23.79,VALID,89.0,VALID,0.796,
2011-05-21, 03:24:04,VALID,1008.762,VALID,0.0,VALID,104.0,VALID,0.0,VALID,23.79,VALID,86.0,VALID,0.193,
2011-05-21, 03:25:04,VALID,1008.786,VALID,0.0,VALID,104.0,VALID,0.0,VALID,23.79,VALID,86.0,VALID,0.338,
2011-05-21, 03:26:04,VALID,1008.752,VALID,0.0,VALID,104.0,VALID,0.0,VALID,23.811,VALID,86.0,VALID,0.407,
2011-05-21, 03:27:04,VALID,1008.762,VALID,0.0,VALID,104.0,VALID,0.0,VALID,23.811,VALID,74.0,VALID,0.717,
2011-05-21, 03:28:04,VALID,1008.736,VALID,0.0,VALID,104.0,VALID,0.0,VALID,23.77,VALID,47.0,VALID,0.625,
2011-05-21, 03:29:04,VALID,1008.751,VALID,0.0,VALID,104.0,VALID,0.106,VALID,23.791,VALID,83.0,VALID,1.27,
2011-05-21, 03:30:04,VALID,1008.723,VALID,0.0,VALID,104.0,VALID,0.0,VALID,23.791,VALID,76.0,VALID,0.199,
2011-05-21, 03:31:04,VALID,1008.717,VALID,0.0,VALID,104.0,VALID,0.0,VALID,23.791,VALID,49.0,VALID,0.302,
2011-05-21, 03:32:04,VALID,1008.709,VALID,0.0,VALID,104.0,VALID,0.0,VALID,23.77,VALID,63.0,VALID,0.641,
2011-05-21, 03:33:04,VALID,1008.675,VALID,0.0,VALID,104.0,VALID,0.0,VALID,23.772,VALID,80.0,VALID,0.68,
2011-05-21, 03:34:04,VALID,1008.646,VALID,0.0,VALID,104.0,VALID,0.0,VALID,23.751,VALID,81.0,VALID,0.587,
2011-05-21, 03:35:04,VALID,1008.632,VALID,0.0,VALID,104.0,VALID,0.0,VALID,23.772,VALID,82.0,VALID,0.656,
2011-05-21, 03:36:04,VALID,1008.65,VALID,0.0,VALID,104.0,VALID,0.0,VALID,23.772,VALID,82.0,VALID,0.372,
2011-05-21, 03:37:04,VALID,1008.622,VALID,0.0,VALID,104.0,VALID,0.0,VALID,23.772,VALID,82.0,VALID,0.185,
2011-05-21, 03:38:04,VALID,1008.613,VALID,0.0,VALID,104.0,VALID,0.106,VALID,23.752,VALID,69.0,VALID,0.309,
2011-05-21, 03:39:04,VALID,1008.594,VALID,0.0,VALID,104.0,VALID,0.0,VALID,23.752,VALID,69.0,VALID,0.0,
2011-05-21, 03:40:04,VALID,1008.621,VALID,0.0,VALID,104.0,VALID,0.106,VALID,23.752,VALID,69.0,VALID,0.081,
2011-05-21, 03:41:04,VALID,1008.637,VALID,0.0,VALID,104.0,VALID,0.0,VALID,23.713,VALID,69.0,VALID,0.569,
2011-05-21, 03:42:04,VALID,1008.638,VALID,0.0,VALID,104.0,VALID,0.0,VALID,23.713,VALID,69.0,VALID,0.341,
2011-05-21, 03:43:04,VALID,1008.643,VALID,0.0,VALID,104.0,VALID,0.0,VALID,23.713,VALID,69.0,VALID,0.008,